Regional Weather Roundup
Issued by NWS Pendleton, OR

Home | Current Version | Previous Version | Text Only | Print | Product List | Glossary On
Versions: 1 2 3 4 5 6 7 8 9 10 11 12 13 14 15 16 17 18 19 20 21 22 23 24 25 26 27 28 29 30 31 32 33 34 35 36 37 38 39 40 41 42 43 44 45 46 47 48 49 50
000
ASUS46 KPDT 281710
RWRPDT
PENDLETON REGIONAL WEATHER ROUNDUP
NATIONAL WEATHER SERVICE PENDLETON OREGON
1000 AM PDT FRI JUL 28 2017

NOTE: FAIR INDICATES FEW OR NO CLOUDS BELOW 12,000 FEET WITH NO
SIGNIFICANT WEATHER AND/OR OBSTRUCTIONS TO VISIBILITY.

# INDICATES UNOFFICIAL STATION AND DATA

WAZ520-281810-
EAST SLOPES OF WASHINGTON CASCADES

CITY            SKY/WX      TMP DP  RH  WIND    PRES   REMARKS
#BULLFROG       N/A         67  48  50  W7      N/A
#CLE ELUM HS    N/A         69  44  40  SW7     29.97S
#CLE ELUM LAKE  N/A         66  46  48  S1      30.10F
#EASTON DOT     N/A         63  46  54  N2      N/A
#ELK HTS DOT    N/A         70  69  97  CALM    N/A
#GLENWOOD       N/A         64  53  67  CALM    29.97F
#NELSON 3SW     N/A         65  51  60  CALM    30.15F
#NILE           N/A         72  44  37  W2      29.24F
#TEANAWAY 4NE   N/A         70  51  51  W1      N/A
#TROUT LAKE 1NE N/A         67  51  56  E1      29.96S
#TROUT LAKE 1E  N/A         71  51  49  CALM    30.06F
$$

WAZ521-281810-
SIMCOE HIGHLANDS

CITY            SKY/WX      TMP DP  RH  WIND    PRES   REMARKS
#BICKLETON HS   N/A         75  45  34  CALM    29.97S
#CENTERVILLE 1SWN/A         71  49  46  W10     29.92F
#GOLDENDALE 1NE N/A         68  37  32  SW3     N/A
#GOLDENDALE 4W  N/A         73  15  11  W9      30.06F
#GOODNOE HILLS  N/A         73  52  48  W12     N/A
#LYLE 6NE       N/A         66  52  61  S7      29.98S
#PITT 4SE       N/A         66  49  54  W7      29.99S
$$

WAZ026-281810-
KITTITAS VALLEY

CITY            SKY/WX      TMP DP  RH  WIND    PRES   REMARKS
ELLENSBURG AP   SUNNY       76  47  36  E7      30.02S
#ELLENSBURG CWU N/A         71  47  42  N2      29.89F
#ELLENSBURG 3NE N/A         68  52  57  CALM    28.10S
#ELLENSBURG 1E  N/A         71  51  49  E2      29.98S
#KITTITAS 3S    N/A         68  50  53  CALM    29.94F
#MANASTASH RDG  N/A         67  66  97  NW10    N/A
#ROCKY CYN DOT  N/A         75  55  50  N7      N/A
#RYEGRASS DOT   N/A         67  45  45  S9      N/A
$$

WAZ027-281810-
YAKIMA VALLEY

CITY            SKY/WX      TMP DP  RH  WIND    PRES   REMARKS
SUNNYSIDE AP    N/A         69  49  49  CALM    29.99F
YAKIMA AIRPORT  SUNNY       78  43  29  W3      30.00F
YAKIMA-VAGABOND SUNNY       75  41  29  N6      29.99S
#DONALD 2NE     N/A         85  22  10  S3      28.84S
#GRANDVIEW      N/A         72  46  39  W2      29.96F
#MABTON         N/A         72  49  44  W1      29.98S
#MOXEE 2E       N/A         76  N/A N/A W1      29.91F
#NACHES 2SW     N/A         73  46  38  E1      30.03S
#OUTLOOK DOT    N/A         71  48  44  CALM    29.96S
#PARKER DOT     N/A         75  43  32  SE6     29.98S
#TERRACE HTS    N/A         73  45  37  CALM    29.90S
#TOPPENISH      N/A         74  46  37  NW1     29.86F
#I82 S UMTANUM RN/A         74  49  41  N9      N/A
#UNION GAP DOT  N/A         74  41  30  NW6     30.02S
#W YAKIMA       N/A         74  51  44  CALM    29.93F
#WHITE SWAN 5E  N/A         74  51  44  CALM    29.95F
#WILEY CITY 3W  N/A         75  40  28  CALM    29.98F
#ZILLAH DOT     N/A         75  45  34  NW1     N/A
$$

WAZ028-281810-
LOWER COLUMBIA BASIN...WASHINGTON

CITY            SKY/WX      TMP DP  RH  WIND    PRES   REMARKS
PASCO           SUNNY       79  47  32  SE5     29.98F
PROSSER AWOS    N/A         75  46  36  SW3     30.02S
RICHLAND AWOS   SUNNY       80  49  34  E6      29.98S
#BENTON CITY    N/A         79  49  35  CALM    29.85F
#CONNELL 5N     N/A         75  52  45  SW1     29.93F
#CONNELL 5NW    N/A         73  54  51  SW1     29.89S
#ELTOPIA 6NW    N/A         73  50  44  CALM    28.97R
#KAHLOTUS       N/A         77  51  40  SW1     29.93S
#KENNEWICK 3S   N/A         76  52  43  S3      29.94F
#PATERSON       N/A         72  55  55  SW2     29.94F
#PROSSER DOT    N/A         74  46  37  CALM    29.99S
#SAGEMOOR 2W    N/A         73  54  51  S1      29.81S
#TOUCHET 2S     N/A         82  46  28  SW6     29.92F
#WEST PASCO     N/A         81  55  41  CALM    29.97S
$$

WAZ029-281810-
FOOTHILLS OF THE BLUES...WASHINGTON

CITY            SKY/WX      TMP DP  RH  WIND    PRES   REMARKS
WALLA WALLA AP  SUNNY       79  44  29  SW10    30.00F
#CLYDE 6NW      N/A         75  50  41  SW8     29.92F
#DAYTON SCHOOL  N/A         77  40  26  E5      30.02S
#LOWDEN 2SE     N/A         78  53  42  CALM    29.95F
#PLEASANT VIEW 1N/A         77  47  35  SW7     29.95S
#PRESCOTT       N/A         78  50  38  CALM    29.94F
#WHITMAN COLLEGEN/A         77  48  36  SW3     29.98F
#WAITSBURG 5S   N/A         77  45  32  SW3     30.01F
#WAITSBURG 6SSE N/A         77  41  28  W3      29.97F
#WALLA WALLA 5E N/A         79  47  32  W7      N/A
#WHITMAN MISSIONN/A         78  51  39  CALM    29.96F
$$

WAZ030-281810-
BLUE MOUNTAINS...WASHINGTON

CITY            SKY/WX      TMP DP  RH  WIND    PRES   REMARKS
#DIXIE 5SE      N/A         71  43  36  SW6     30.01S
$$

ORZ009-041-WAZ024-281810-
COLUMBIA RIVER GORGE

CITY            SKY/WX      TMP DP  RH  WIND    PRES   REMARKS
HOOD RIVER AP   SUNNY       70  50  49  CALM    30.03F
THE DALLES AP   SUNNY       75  52  45  N17     29.99F
#ARLINGTON AIRPON/A         73  50  44  W12     29.96F
#CELILO DOT     N/A         78  53  42  W6      N/A
#LYLE           N/A         70  54  57  W7      30.01S
#MARYHILL       N/A         72  48  43  N14     29.86S
#RUFUS DOT      N/A         74  N/A N/A W8      N/A
#SMITHVILLE     N/A         72  54  53  N13     29.99F

$$

ORZ510-281810-
NORTH CENTRAL OREGON

CITY            SKY/WX      TMP DP  RH  WIND    PRES   REMARKS
#ANTELOPE       N/A         72  45  38  SW1     29.78F
#CHENOWITH 1W   N/A         64  50  60  W23     N/A
#COW CYN RST AREN/A         70  39  32  SW3     N/A
#DUFUR          N/A         72  48  43  NE5     29.94F
#DUFUR 9E       N/A         69  40  35  N2      29.99S
#GRASS VALLEY 1SN/A         75  35  23  CALM    30.06F
#KENT DOT       N/A         74  42  32  W8      N/A
#MAUPIN SCHOOL  N/A         72  47  41  CALM    30.05F
#MORO SCHOOL    N/A         73  42  33  W7      30.01F
#SHANIKO 5WSW   N/A         71  43  36  N6      N/A
#SHANIKO 4NW    N/A         70  37  30  W7      30.10S
#TYGH VALLEY 2NEN/A         71  46  41  CALM    29.96F
#WAPANITIA AIRPON/A         74  43  33  CALM    29.96S
#WASCO 5NE      N/A         73  48  41  W6      29.95S
$$

ORZ511-281810-
CENTRAL OREGON

CITY            SKY/WX      TMP DP  RH  WIND    PRES   REMARKS
BEND AIRPORT    SUNNY       77  46  33  N7      30.10S
MADRAS AIRPORT  SUNNY       70  43  38  N3      30.08F
PRINEVILLE AP   SUNNY       72  43  35  CALM    30.09F
REDMOND AIRPORT SUNNY       73  41  31  NW3     30.08F
#ASHWOOD SCHOOL N/A         74  45  35  NE3     30.01F
#BEND 1SW       N/A         70  51  51  N1      N/A
#BEND-AWBREY    N/A         71  50  47  CALM    29.90F
#BEND-KIM LN    N/A         71  50  47  N1      29.86F
#CULVER         N/A         71  46  41  CALM    29.86F
#CULVER 8W      N/A         78  44  30  CALM    30.08S
#LAKE BILLY CHINN/A         73  N/A N/A CALM    30.01F
#MADRAS 4S      N/A         71  12  10  NW7     N/A
#POWELL BUTTE   N/A         68  45  44  NW5     30.04F
#PRINEVILLE     N/A         69  47  45  CALM    29.99F
#PRINEVILLE 3N  N/A         70  51  51  SE3     29.99F
#WARM SPRINGS   N/A         74  49  41  CALM    29.84F

$$


ORZ509-281810-
EAST SLOPES OF OREGON CASCADES

CITY            SKY/WX      TMP DP  RH  WIND    PRES   REMARKS
SISTERS AWOS    N/A         72  48  43  CALM    N/A
#BLUE BOX PASS  N/A         61  N/A N/A CALM    N/A
#CAMP SHERMAN   N/A         71  50  47  CALM    30.00F
#LA PINE 4NW    N/A         68  53  59  CALM    29.94F
#LAVA BUTTE DOT N/A         69  51  53  SE2     N/A
#SISTERS ODOT   N/A         71  47  42  CALM    N/A
#SISTERS 3N     N/A         72  52  49  E3      30.01S
#SUNRIVER       N/A         71  53  53  S1      30.05F
#TUMALO 3W      N/A         71  47  42  NW1     29.78F
#WANOGA BUTTE D N/A         68  34  28  W3      N/A

$$

ORZ044-281810-
LOWER COLUMBIA BASIN...OREGON

CITY            SKY/WX      TMP DP  RH  WIND    PRES   REMARKS
HERMISTON       SUNNY       77  48  36  W9      29.99S
#BOARDMAN SCHOOLN/A         75  53  46  SW7     29.96F
#BOARDMAN 8SW   N/A         75  52  45  W9      29.95F
#ECHO 8SW       N/A         78  43  29  W6      29.99F
#I-84 EX 198 DOTN/A         76  52  43  E3      N/A
#IONE SCHOOL    N/A         75  40  28  W6      29.96S
#UMATILLA       N/A         73  51  46  N3      29.89F
$$

ORZ507-281810-
NORTHERN FOOTHILLS OF THE BLUES

CITY            SKY/WX      TMP DP  RH  WIND    PRES   REMARKS
PENDLETON AIRPT SUNNY       79  36  21  W6      30.01F
#ADAMS 3WNW     N/A         77  42  29  SW6     29.94F
#ATHENA         N/A         76  44  32  CALM    29.96F
#CAYUSE         N/A         76  44  32  SW3     29.93F
#HELIX SCHOOL   N/A         74  41  30  N6      29.93F
#HELIX 3N       N/A         74  40  29  SW13    30.00F
#HOLDMAN 6E     N/A         74  42  32  SW7     29.75S
#M-F GROVE ELEM N/A         80  39  23  CALM    29.97F
#M-FREEWATER 5SEN/A         77  50  39  NW5     29.99F
#PENDLETON DNTN N/A         81  49  33  CALM    29.98F
#PDT AQUATIC CTRN/A         74  45  35  SE3     29.99F
#PDT SUNRIDGE   N/A         77  45  32  CALM    30.02F
#PENDLETON 7NW  N/A         82  52  35  W3      30.02F
#PILOT ROCK 1S  N/A         79  39  24  CALM    30.02F
#PILOT ROCK     N/A         78  42  28  CALM    30.03F
#TUTUILLA       N/A         78  48  35  CALM    30.06F
#UMAPINE 2E     N/A         80  53  39  CALM    29.96F
#WESTON SCHOOL  N/A         75  39  27  N2      29.96S

$$

ORZ508-281810-
SOUTHERN FOOTHILLS OF THE BLUES

CITY            SKY/WX      TMP DP  RH  WIND    PRES   REMARKS
LEXINGTON       SUNNY       79  34  20  VRB7    30.05F
#AJAX           N/A         74  32  21  S6      30.18F
#CONDON 5W      N/A         71  29  21  NW2     30.06F
#FOSSIL SCHOOL  N/A         75  41  29  W2      30.00F
#HEPPNER EOC    N/A         76  37  24  N7      29.87F
#HEPPNER 4NE    N/A         73  38  28  W5      29.91F
#LEXINGTON 2SE  N/A         79  38  23  N3      29.98F
#MIKKALO        N/A         74  37  26  W5      30.14F
#OLEX 4N        N/A         74  42  32  W9      29.99F
#RUGGS 5NE      N/A         76  35  22  NW1     30.23S
#RUGGS 2SW      N/A         76  37  24  NE5     29.93F

$$

ORZ502-503-281810-
BLUE MOUNTAINS

CITY            SKY/WX      TMP DP  RH  WIND    PRES   REMARKS
MEACHAM         SUNNY       76  31  19  CALM    30.10F
#BATTLE MTN DOT N/A         71  46  41  S1      N/A
#GRANITE        N/A         73  52  48  SW3     29.77F
#HEPPNER 15SE   N/A         72  41  33  W2      29.94F
#LADD CYN SMT   N/A         77  45  32  SE6     N/A
#LADD CREEK ODOTN/A         72  48  43  NE6     N/A
#LONG CREEK HS  N/A         70  42  36  CALM    N/A
#N POWDER DOT   N/A         78  49  36  W3      N/A
#PIKES PEAK     N/A         67  41  39  N8      27.99S
#TOLLGATE       N/A         69  42  37  CALM    30.00F
#TROY SCHOOL    N/A         80  48  33  CALM    29.75F
#UKIAH          N/A         69  44  40  CALM    29.87F
#WESTON 4E      N/A         74  41  30  SE3     29.88S
$$

ORZ505-281810-
JOHN DAY BASIN

CITY            SKY/WX      TMP DP  RH  WIND    PRES   REMARKS
JOHN DAY        SUNNY       75  43  32  CALM    30.10S
#JOHN DAY KJDY  N/A         76  N/A N/A N1      29.96F
#DAYVILLE SCHOOLN/A         75  39  27  CALM    30.01F
#MITCHELL       N/A         78  51  39  CALM    30.22F
#MITCHELL 8NW   N/A         73  41  31  NE2     29.95F
#MONUMENT HS    N/A         76  41  28  CALM    29.99F
#MT. VERNON 5SE N/A         73  43  34  CALM    30.06S
#SPRAY SCHOOL   N/A         77  N/A N/A CALM    N/A
$$

ORZ506-281810-
OCHOCO AND JOHN DAY HIGHLANDS

CITY            SKY/WX      TMP DP  RH  WIND    PRES   REMARKS
#HORSE RIDGE DO N/A         72  43  35  W1      N/A
#IZEE 6NW       N/A         76  46  34  N2      N/A
#PAULINA ODOT   N/A         72  41  33  E3      N/A
#PINE MTN OBS   N/A         67  44  43  E5      N/A
#SENECA         N/A         72  N/A N/A NW1     N/A
#SENECA 9NW     N/A         68  48  49  CALM    29.88F
$$

ORZ049-281810-
GRANDE RONDE VALLEY

CITY            SKY/WX      TMP DP  RH  WIND    PRES   REMARKS
LA GRANDE       SUNNY       73  41  31  CALM    30.06F
#COVE           N/A         74  50  43  N1      30.09F
#COVE SCHOOL    N/A         76  46  34  CALM    30.08F
#COVE 6NW       N/A         74  48  40  CALM    29.92F
#ELGIN 3N       N/A         76  44  32  CALM    30.03F
#ELGIN 1E       N/A         70  47  44  CALM    N/A
#IMBLER SCHOOL  N/A         73  45  37  CALM    30.02F
#ISLAND CITY 4N N/A         66  56  70  S2      30.11F
#LA GRANDE-LEFFEN/A         81  47  30  S5      30.06F
#UNION 1S       N/A         72  51  48  SW1     29.91F
$$

ORZ050-281810-
WALLOWA COUNTY

CITY            SKY/WX      TMP DP  RH  WIND    PRES   REMARKS
JOSEPH AIRPORT  SUNNY       81  39  22  CALM    30.12F
#ENTERPRISE HS  N/A         78  51  39  CALM    29.78F
#IMNAHA SCHOOL  N/A         81  49  33  CALM    29.99F
#IMNAHA 10S     N/A         79  50  36  NE2     30.03F
#JOSEPH         N/A         76  43  31  N1      30.04F
#JOSEPH 3N      N/A         74  45  35  CALM    30.12F
#JOSEPH 3W      N/A         78  52  40  E1      29.97F
#LOSTINE        N/A         76  52  43  CALM    29.71F
#LOSTINE 3SE    N/A         78  47  34  NE1     30.12F
#MT HOWARD 8000 N/A         65  41  41  S5      30.40R
#PROMISE 1S     N/A         75  48  38  CALM    29.98R
#WALLOWA LAKE   N/A         77  49  37  N1      30.16F
#WALLOWA SCHOOL N/A         74  49  41  CALM    30.02F



$$



USA.gov is the U.S. government's official web portal to all federal, state and local government web resources and services.